AAL3179 KJFK-KCLT

Flight info

Callsign AAL3179
Flight time N/A
Altitude 36000
Route RBV Q430 COPES Q75 GVE AIROW CHSLY6
Aircraft B738/M-SDE2E3FGHIRWXY/LB1

Departure

Time 2026-05-05 22:19
Airport John F. Kennedy International Airport (KJFK)

Arrival

Time N/A
Airport Charlotte Douglas International Airport (KCLT)
Time Latitude Longitude Altitude Speed Heading
2026-05-05 21:50 40.65060 -73.79303 15 ft 0 kts 150°
2026-05-05 21:56 40.65061 -73.79303 15 ft 0 kts 150°
2026-05-05 22:06 40.65071 -73.79311 16 ft 3 kts 148°
2026-05-05 22:06 40.65087 -73.79326 16 ft 3 kts 135°
2026-05-05 22:07 40.65098 -73.79345 16 ft 3 kts 97°
2026-05-05 22:07 40.65098 -73.79350 17 ft 3 kts 80°
2026-05-05 22:07 40.65097 -73.79358 15 ft 2 kts 61°
2026-05-05 22:07 40.65096 -73.79359 15 ft 2 kts 60°
2026-05-05 22:08 40.65096 -73.79360 15 ft 0 kts 60°
2026-05-05 22:10 40.65100 -73.79352 16 ft 4 kts 60°
2026-05-05 22:10 40.65135 -73.79305 15 ft 9 kts
2026-05-05 22:10 40.65196 -73.79319 15 ft 9 kts 23°
2026-05-05 22:10 40.65211 -73.79243 15 ft 10 kts 98°
2026-05-05 22:11 40.65188 -73.79138 16 ft 14 kts 107°
2026-05-05 22:11 40.65155 -73.78997 15 ft 18 kts 107°
2026-05-05 22:11 40.65138 -73.78835 15 ft 18 kts 85°
2026-05-05 22:11 40.65173 -73.78683 16 ft 17 kts 60°
2026-05-05 22:12 40.65233 -73.78546 15 ft 19 kts 60°
2026-05-05 22:12 40.65265 -73.78387 15 ft 19 kts 106°
2026-05-05 22:12 40.65203 -73.78241 15 ft 18 kts 121°
2026-05-05 22:12 40.65140 -73.78103 15 ft 17 kts 121°
2026-05-05 22:13 40.65079 -73.77969 15 ft 17 kts 121°
2026-05-05 22:13 40.65020 -73.77840 15 ft 16 kts 120°
2026-05-05 22:13 40.64965 -73.77715 15 ft 15 kts 120°
2026-05-05 22:13 40.64912 -73.77598 15 ft 12 kts 120°
2026-05-05 22:14 40.64935 -73.77511 15 ft 11 kts 40°
2026-05-05 22:14 40.64995 -73.77450 16 ft 11 kts 32°
2026-05-05 22:14 40.65070 -73.77412 17 ft 13 kts 20°
2026-05-05 22:14 40.65134 -73.77361 15 ft 9 kts 59°
2026-05-05 22:15 40.65117 -73.77285 15 ft 9 kts 119°
2026-05-05 22:15 40.65078 -73.77201 15 ft 12 kts 121°
2026-05-05 22:15 40.65026 -73.77087 16 ft 15 kts 121°
2026-05-05 22:15 40.64973 -73.76970 16 ft 14 kts 121°
2026-05-05 22:16 40.64922 -73.76859 16 ft 14 kts 121°
2026-05-05 22:16 40.64875 -73.76755 16 ft 12 kts 119°
2026-05-05 22:16 40.64908 -73.76675 15 ft 11 kts 29°
2026-05-05 22:16 40.64977 -73.76623 15 ft 11 kts 30°
2026-05-05 22:17 40.65049 -73.76569 15 ft 13 kts 30°
2026-05-05 22:17 40.65099 -73.76478 15 ft 14 kts 104°
2026-05-05 22:17 40.65058 -73.76372 15 ft 10 kts 120°
2026-05-05 22:17 40.65011 -73.76364 15 ft 7 kts 209°
2026-05-05 22:18 40.64966 -73.76398 15 ft 9 kts 209°
2026-05-05 22:18 40.64734 -73.76577 18 ft 74 kts 211°
2026-05-05 22:18 40.64099 -73.77072 22 ft 135 kts 210°
2026-05-05 22:18 40.63242 -73.77788 531 ft 149 kts 209°
2026-05-05 22:19 40.62331 -73.78477 1315 ft 151 kts 208°
2026-05-05 22:19 40.61367 -73.79119 2040 ft 168 kts 208°
2026-05-05 22:19 40.60195 -73.79832 2229 ft 200 kts 207°
2026-05-05 22:19 40.58925 -73.80763 2585 ft 219 kts 216°
2026-05-05 22:20 40.57706 -73.82104 3019 ft 235 kts 230°
2026-05-05 22:20 40.56696 -73.83822 3821 ft 239 kts 234°
2026-05-05 22:20 40.55736 -73.85602 4792 ft 240 kts 235°
2026-05-05 22:20 40.54767 -73.87412 5626 ft 244 kts 236°
2026-05-05 22:21 40.53780 -73.89250 6488 ft 247 kts 236°
2026-05-05 22:21 40.52779 -73.91099 7324 ft 250 kts 236°
2026-05-05 22:21 40.51755 -73.92979 8113 ft 255 kts 237°
2026-05-05 22:21 40.50716 -73.94877 8968 ft 257 kts 237°
2026-05-05 22:22 40.49673 -73.96775 9785 ft 260 kts 238°
2026-05-05 22:22 40.48602 -73.98718 10401 ft 270 kts 237°
2026-05-05 22:22 40.47462 -74.00785 10758 ft 289 kts 237°
2026-05-05 22:22 40.46251 -74.02976 11201 ft 303 kts 237°
2026-05-05 22:23 40.44985 -74.05259 11726 ft 315 kts 237°
2026-05-05 22:23 40.43669 -74.07626 12293 ft 325 kts 237°
2026-05-05 22:23 40.42340 -74.10012 13071 ft 328 kts 236°
2026-05-05 22:23 40.40974 -74.12460 13931 ft 330 kts 236°